SCP
0 0 0 0 0 0 0 0 0 0 0 0 0 0 0 0 0 0 0 0 0 0 0 0 0 0 0 0 0 0 0 0 0 0 0 0 0 0 -0 -0 -0 -0 -0
0 0 0 0 0 0 0 0 0 0 0 0 0 0 0 0 0 0 0 0 0 0 0 0 0 0 0 0 0 0 0 0 0 0 0 0 0 -0 -0 -0 -0 -0 -0
0 0 0 0 0 0 0 0 0 0 0 0 0 0 0 0 0 0 0 0 0 0 0 0 0 0 0 0 0 0 0 0 0 0 0 0 0 -0 -0 -0 -0 -0 -0
0 0 0 0 0 0 0 0 0 0 0 0 0 0 0 0 0 0 0 0 0 0 0 0 0 0 0 0 0 0 0 0 0 0 0 0 0 -0 -0 -0 -0 -0 -0
0 0 0 0 0 0 0 0 0 0 0 0 0 0 0 0 0 0 0 0 0 0 0 0 0 0 0 0 0 0 0 0 0 0 0 0 0 0 -0 -0 0 -0 -0
0 0 0 0 0 0 0 0 0 0 0 0 0 0 0 0 0 0 0 0 0 0 0 0 0 0 0 0 0 0 0 0 0 0 0 0 0 0 0 0 0 0 -0
0 0 0 0 0 0 0 0 0 0 0 0 0 0 0 0 0 0 0 0 0 0 0 0 0 0 0 0 0 0 0 0 0 0 0 0 0 0 0 0 0 0 0
0 0 0 0 0 0 0 0 0 0 0 0 0 0 0 0 0 0 0 0 0 0 0 0 0 0 0 0 0 0 0 0 0 0 0 0 0 0 0 0 0 0 0
0 0 0 0 0 0 0 0 0 0 0 0 0 0 0 0 0 0 0 0 0 0 0 0 0 0 0 0 0 0 0 0 0 0 0 0 0 0 0 0 0 0 0
0 0 0 0 0 0 0 0 0 0 0 0 0 0 0 0 0 0 0 0 0 0 0 0 0 0 0 0 0 0 0 0 0 0 0 0 0 0 0 0 0 0 0
0 0 0 0 0 0 0 0 0 0 0 0 0 0 0 0 0 0 0 0 0 0 0 0 0 0 0 0 0 0 0 0 0 0 0 0 0 0 0 0 0 0 0
0 0 0 0 0 0 0 0 0 0 0 0 0 0 0 0 0 0 0 0 0 0 0 0 0 0 0 0 0 0 0 0 0 0 0 0 0 0 0 0 0 0 0
-0 -0 -0 0 0 0 0 0 0 0 0 0 0 0 0 0 0 0 0 0 0 0 0 0 0 0 0 0 0 0 0 0 0 0 0 0 0 0 0 0 0 0 0
-0 -0 -0 -0 0 0 0 0 0 0 0 0 0 0 0 0 0 0 0 0 0 0 0 0 0 0 0 0 0 0 0 0 0 0 0 0 0 0 0 0 0 0 0
0 0 0 0 0 0 0 0 0 0 0 0 0 0 0 0 0 0 0 0 0 0 0 0 0 0 0 0 0 0 0 0 0 0 0 0 0 0 0 0 0 0 0
0 0 0 0 0 0 0 0 0 0 0 0 0 0 0 0 0 0 0 0 0 0 0 0 0 0 0 0 0 0 0 0 0 0 0 0 0 0 0 0 0 0 0
0 0 0 0 0 0 0 0 0 0 0 0 0 0 0 0 0 0 0 0 0 0 0 0 0 0 0 0 0 0 0 0 0 0 0 0 0 0 0 0 0 0 0
0 0 0 0 0 0 0 0 0 0 0 0 0 0 0 0 0 0 0 0 0 0 0 0 0 0 0 0 0 0 0 0 0 0 0 0 0 0 0 0 0 0 0
0 0 0 0 0 0 0 0 0 0 0 0 0 0 0 0 0 0 0 0 0 0 0 0 0 0 0 0 0 0 0 0 0 0 0 0 0 0 0 0 0 0 0
0 0 0 0 0 0 0 0 0 0 0 0 0 0 0 0 0 0 0 0 0 0 0 0 0 0 0 0 0 0 0 0 0 0 0 0 0 0 0 0 0 0 0
0 0 0 0 0 0 0 0 0 0 0 0 0 0 0 0 0 0 0 0 0 0 0 0 0 0 0 0 0 0 0 0 0 0 0 0 0 0 0 0 0 0 0
0 0 0 0 0 0 0 0 0 0 0 0 0 0 0 0 0 0 0 0 0 0 0 0 0 0 0 0 0 0 0 0 0 0 0 0 0 0 0 0 0 0 0
0 0 0 0 0 0 0 0 0 0 0 0 0 0 0 0 0 0 0 0 0 0 0 0 0 0 0 0 0 0 0 0 0 0 0 0 0 0 0 0 0 0 0
0 0 0 0 0 0 0 0 0 0 0 0 0 0 0 0 0 0 0 0 0 0 0 0 0 0 0 0 0 0 0 0 0 0 0 0 0 0 0 0 0 0 0
0 0 0 0 0 0 0 0 0 0 0 0 0 0 0 0 0 0 0 0 0 0 0 0 0 0 0 0 0 0 0 0 0 0 0 0 0 0 0 0 0 0 0
0 0 0 0 0 0 0 0 0 0 0 0 0 0 0 0 0 0 0 0 0 0 0 0 0 0 0 0 0 0 0 0 0 0 0 0 0 0 0 0 0 0 0
Wind_Speed_500mb
64 75 84 86 88 91 91 91 87 84 85 83 80 79 86 92 90 86 80 75 68 60 54 49 49 47 45 42 39 36 36 43 56 67 66 71 74 80 82 84 86 86 84
76 80 89 93 100 101 99 97 96 91 89 84 82 81 85 92 94 92 86 82 75 68 60 54 53 50 47 45 40 37 37 43 53 65 74 76 79 83 85 87 86 87 92
88 98 98 100 103 105 106 106 106 102 97 94 87 86 89 94 99 95 89 85 80 72 62 56 54 53 49 46 41 38 38 42 50 63 75 78 84 84 86 86 93 96 96
98 101 100 96 98 108 109 110 111 113 110 105 96 91 91 94 96 96 94 90 85 74 64 60 55 53 50 46 42 37 40 44 50 60 68 78 82 83 86 94 102 97 104
92 95 102 97 101 108 107 105 107 106 111 108 99 95 94 94 97 99 100 94 88 77 68 62 58 55 51 48 45 40 40 43 50 61 67 77 81 84 84 89 98 105 108
96 98 98 107 112 107 111 105 104 106 107 102 100 96 98 97 97 101 100 95 87 77 70 64 59 55 55 50 47 42 42 48 54 58 64 74 74 74 77 84 92 98 110
84 92 81 86 108 110 103 104 102 106 100 96 94 97 101 97 98 102 105 97 87 77 72 65 62 57 53 48 43 38 37 43 50 49 61 63 69 69 74 83 84 88 92
71 67 72 80 88 98 95 99 100 98 92 91 92 91 96 97 99 105 108 98 89 81 74 65 60 54 49 44 38 36 40 42 42 46 54 60 65 67 69 77 86 97 104
87 73 69 63 69 84 87 88 88 90 90 92 91 88 91 93 98 106 104 97 89 79 72 64 56 49 46 45 42 41 41 41 39 45 49 56 63 62 62 78 86 90 105
78 89 83 66 60 64 68 74 81 85 86 83 88 84 89 92 98 107 109 93 88 81 70 63 57 52 45 45 40 39 37 40 44 49 52 51 58 63 61 65 72 79 87
77 75 84 82 67 55 53 60 70 79 80 79 82 85 91 88 94 103 105 96 90 78 72 67 58 48 44 43 40 37 41 39 46 45 51 53 54 60 62 63 67 73 84
83 81 68 76 75 63 52 50 59 69 75 75 80 85 91 89 94 103 104 95 88 82 76 67 55 49 47 45 41 37 37 41 39 42 49 51 55 58 64 67 69 74 77
83 79 73 59 65 70 62 55 57 67 73 73 78 83 90 86 90 98 92 86 86 79 71 61 52 48 50 46 34 31 35 34 37 40 46 49 52 58 66 72 75 79 85
90 91 77 68 66 66 67 65 58 64 69 74 81 86 88 86 91 94 76 65 66 72 64 55 51 53 46 40 34 30 32 34 37 42 42 46 53 61 72 74 83 84 91
94 90 90 77 66 69 78 76 75 73 69 72 84 84 88 93 100 102 101 90 78 64 66 58 57 52 47 41 35 33 31 32 35 37 39 46 53 64 73 77 80 85 88
93 88 82 81 75 69 68 79 80 82 80 76 82 81 84 89 92 103 102 94 89 88 68 61 57 54 46 40 35 33 30 33 33 33 38 45 53 63 75 80 80 83 90
92 85 74 81 84 78 70 77 74 77 74 70 69 70 76 83 87 100 95 83 92 87 73 61 61 53 48 41 37 33 30 33 28 32 39 46 53 61 72 82 87 91 90
82 77 72 69 88 84 80 74 65 69 72 76 57 59 57 59 70 80 79 72 69 69 61 65 60 56 46 39 35 30 32 29 27 31 38 46 54 65 74 82 89 91 95
79 80 73 63 79 79 73 73 62 63 64 62 60 55 57 54 72 79 80 93 86 67 64 61 55 49 42 36 31 32 31 27 28 33 37 46 56 67 75 81 90 91 100
79 76 69 60 76 78 74 69 61 63 60 59 65 80 73 71 86 88 100 92 74 61 59 59 51 44 37 30 28 31 28 28 28 32 38 47 56 67 76 82 83 98 101
70 71 58 55 71 75 70 68 62 60 60 62 71 82 75 99 95 106 101 78 67 60 62 56 46 38 32 29 28 27 29 28 30 34 40 49 58 73 77 82 90 98 100
59 57 50 59 62 64 59 56 54 55 62 70 75 76 82 99 97 97 88 76 65 60 54 46 38 31 29 27 25 27 29 29 29 35 41 50 60 73 79 83 95 102 104
32 36 53 56 52 47 45 46 54 63 71 78 87 86 90 99 99 90 72 64 65 59 49 41 32 28 27 26 26 27 27 28 30 35 42 51 62 73 78 84 96 105 103
17 20 29 33 34 37 44 53 64 76 80 81 83 82 91 97 85 71 63 62 56 48 41 33 28 26 25 24 25 27 28 29 30 32 39 50 63 73 77 83 96 103 105
1 11 20 28 37 45 51 59 66 68 76 86 89 87 78 72 70 60 58 52 45 39 32 28 25 23 21 22 25 26 27 27 28 32 40 46 61 71 75 79 93 103 107
7 11 18 28 36 41 45 53 59 66 72 77 76 73 67 71 61 56 50 44 37 31 27 23 21 21 22 23 25 25 25 25 26 30 37 45 63 71 74 77 91 99 105
Wind_Direction_500mb
262 258 252 247 241 239 239 240 240 241 242 240 236 233 233 232 230 229 228 229 231 237 245 252 256 259 262 264 271 280 292 298 301 307 310 313 315 318 322 324 324 321 319
269 263 261 250 245 242 241 241 241 242 243 242 238 233 231 231 231 229 228 229 231 235 241 247 253 256 258 258 262 274 288 296 302 307 307 312 315 319 323 323 321 319 322
283 268 261 255 251 249 245 244 244 243 243 242 237 233 231 230 229 227 229 231 233 234 238 245 251 255 256 256 262 274 288 295 299 302 305 310 313 318 320 321 322 324 323
289 270 266 261 260 258 251 248 247 246 245 242 239 235 232 231 228 227 227 228 231 233 236 241 245 250 253 254 264 276 285 292 296 298 301 307 313 321 325 325 321 321 321
303 284 265 257 260 259 254 253 251 249 248 244 239 234 231 228 226 226 227 228 229 231 235 239 244 247 249 253 264 274 279 288 294 296 303 308 315 322 323 322 319 319 320
298 290 290 271 261 261 256 252 251 249 244 241 237 234 232 227 224 225 228 228 228 231 235 238 240 244 245 252 263 273 286 294 296 300 306 307 312 314 317 316 317 319 317
298 288 291 285 272 263 256 254 249 246 244 239 235 231 229 227 226 225 227 225 226 230 234 234 238 241 246 253 260 274 282 288 289 293 294 301 306 312 315 317 314 308 303
344 313 302 290 282 268 261 253 247 244 244 241 234 232 230 229 226 224 226 225 224 226 229 233 237 240 245 251 262 270 275 281 283 287 292 302 309 312 309 301 295 300 302
342 348 331 312 292 274 261 253 248 243 239 234 230 229 230 228 224 224 226 223 222 223 225 227 232 239 247 259 265 268 274 283 296 299 298 294 298 300 300 302 304 306 305
335 330 337 333 316 290 271 259 250 243 237 232 231 228 227 227 223 223 225 222 221 219 222 224 230 237 246 254 258 266 277 287 294 297 299 300 302 304 305 302 302 301 305
315 318 321 325 326 307 288 266 252 243 238 232 230 230 229 225 221 226 228 221 221 219 222 225 228 236 240 244 253 263 272 282 285 294 297 302 304 307 308 308 309 309 305
313 307 302 308 314 316 294 273 258 245 237 233 230 227 227 222 217 221 223 225 220 221 220 223 224 228 237 244 247 252 259 269 286 292 296 303 307 313 316 315 314 310 307
307 306 297 285 287 296 295 285 265 248 240 234 231 229 227 219 216 218 219 224 219 216 216 217 218 225 234 233 235 242 259 272 282 288 294 305 312 318 320 320 316 315 314
297 292 294 290 279 271 273 271 263 255 250 243 233 229 227 221 214 210 205 203 214 209 208 209 214 228 223 222 229 239 256 270 280 288 300 310 318 322 322 326 322 322 316
299 293 289 283 282 276 266 257 257 256 252 247 246 238 231 226 220 217 216 208 215 218 211 209 220 218 216 219 226 236 249 265 275 288 305 316 323 323 325 328 325 324 314
295 289 281 283 276 274 268 262 258 254 251 245 241 244 244 241 232 219 215 215 216 219 206 214 217 213 215 219 227 240 256 267 277 296 309 320 324 326 326 327 329 324 316
292 288 282 277 275 271 268 259 257 252 253 251 241 242 240 238 228 216 205 194 209 208 208 213 212 209 213 218 228 241 253 265 282 299 310 319 327 327 327 329 333 329 318
286 283 280 266 270 270 265 262 257 251 244 241 233 222 220 227 216 194 186 183 183 204 211 208 204 207 210 221 234 248 258 267 285 300 311 323 329 329 330 332 333 328 315
287 281 273 271 268 269 268 259 253 247 244 240 230 210 211 193 190 186 181 186 195 211 204 202 205 206 212 221 238 253 260 274 292 304 315 325 329 331 332 335 333 322 316
284 279 275 260 260 261 260 255 245 241 236 229 211 201 198 178 182 181 188 193 201 202 200 202 203 210 220 228 240 254 267 279 294 305 322 326 330 332 333 335 331 319 318
286 282 270 259 256 258 256 249 241 233 227 212 201 196 194 180 184 189 184 196 198 194 195 199 204 211 222 233 244 260 271 283 298 316 322 325 329 333 335 338 326 324 321
286 274 257 252 255 249 245 239 229 217 201 192 185 181 179 186 188 185 195 199 193 190 195 200 205 213 225 239 252 264 276 289 304 319 323 326 330 334 338 336 330 331 327
289 263 250 248 243 239 227 217 203 193 185 182 183 174 186 188 190 194 190 185 184 188 192 199 203 217 232 244 257 269 283 300 309 321 323 325 330 337 338 333 335 335 329
283 247 232 225 220 212 204 196 188 186 185 182 174 184 188 195 190 190 184 180 183 186 193 199 207 222 238 253 265 277 289 301 308 320 319 321 332 336 330 332 337 336 334
213 184 186 187 185 186 185 185 183 184 178 176 182 189 191 187 185 180 180 181 184 191 197 207 220 232 247 261 268 275 284 297 308 316 312 325 334 326 328 331 335 337 338
87 138 156 166 172 176 178 179 182 185 187 188 189 189 187 182 181 181 181 185 189 197 208 222 239 255 268 275 278 280 289 300 304 314 321 320 328 326 328 330 333 337 339
Wind_Speed_850mb
64 75 84 86 88 91 91 91 87 84 85 83 80 79 86 92 90 86 80 75 68 60 54 49 49 47 45 42 39 36 36 43 56 67 66 71 74 80 82 84 86 86 84
76 80 89 93 100 101 99 97 96 91 89 84 82 81 85 92 94 92 86 82 75 68 60 54 53 50 47 45 40 37 37 43 53 65 74 76 79 83 85 87 86 87 92
88 98 98 100 103 105 106 106 106 102 97 94 87 86 89 94 99 95 89 85 80 72 62 56 54 53 49 46 41 38 38 42 50 63 75 78 84 84 86 86 93 96 96
98 101 100 96 98 108 109 110 111 113 110 105 96 91 91 94 96 96 94 90 85 74 64 60 55 53 50 46 42 37 40 44 50 60 68 78 82 83 86 94 102 97 104
92 95 102 97 101 108 107 105 107 106 111 108 99 95 94 94 97 99 100 94 88 77 68 62 58 55 51 48 45 40 40 43 50 61 67 77 81 84 84 89 98 105 108
96 98 98 107 112 107 111 105 104 106 107 102 100 96 98 97 97 101 100 95 87 77 70 64 59 55 55 50 47 42 42 48 54 58 64 74 74 74 77 84 92 98 110
84 92 81 86 108 110 103 104 102 106 100 96 94 97 101 97 98 102 105 97 87 77 72 65 62 57 53 48 43 38 37 43 50 49 61 63 69 69 74 83 84 88 92
71 67 72 80 88 98 95 99 100 98 92 91 92 91 96 97 99 105 108 98 89 81 74 65 60 54 49 44 38 36 40 42 42 46 54 60 65 67 69 77 86 97 104
87 73 69 63 69 84 87 88 88 90 90 92 91 88 91 93 98 106 104 97 89 79 72 64 56 49 46 45 42 41 41 41 39 45 49 56 63 62 62 78 86 90 105
78 89 83 66 60 64 68 74 81 85 86 83 88 84 89 92 98 107 109 93 88 81 70 63 57 52 45 45 40 39 37 40 44 49 52 51 58 63 61 65 72 79 87
77 75 84 82 67 55 53 60 70 79 80 79 82 85 91 88 94 103 105 96 90 78 72 67 58 48 44 43 40 37 41 39 46 45 51 53 54 60 62 63 67 73 84
83 81 68 76 75 63 52 50 59 69 75 75 80 85 91 89 94 103 104 95 88 82 76 67 55 49 47 45 41 37 37 41 39 42 49 51 55 58 64 67 69 74 77
83 79 73 59 65 70 62 55 57 67 73 73 78 83 90 86 90 98 92 86 86 79 71 61 52 48 50 46 34 31 35 34 37 40 46 49 52 58 66 72 75 79 85
90 91 77 68 66 66 67 65 58 64 69 74 81 86 88 86 91 94 76 65 66 72 64 55 51 53 46 40 34 30 32 34 37 42 42 46 53 61 72 74 83 84 91
94 90 90 77 66 69 78 76 75 73 69 72 84 84 88 93 100 102 101 90 78 64 66 58 57 52 47 41 35 33 31 32 35 37 39 46 53 64 73 77 80 85 88
93 88 82 81 75 69 68 79 80 82 80 76 82 81 84 89 92 103 102 94 89 88 68 61 57 54 46 40 35 33 30 33 33 33 38 45 53 63 75 80 80 83 90
92 85 74 81 84 78 70 77 74 77 74 70 69 70 76 83 87 100 95 83 92 87 73 61 61 53 48 41 37 33 30 33 28 32 39 46 53 61 72 82 87 91 90
82 77 72 69 88 84 80 74 65 69 72 76 57 59 57 59 70 80 79 72 69 69 61 65 60 56 46 39 35 30 32 29 27 31 38 46 54 65 74 82 89 91 95
79 80 73 63 79 79 73 73 62 63 64 62 60 55 57 54 72 79 80 93 86 67 64 61 55 49 42 36 31 32 31 27 28 33 37 46 56 67 75 81 90 91 100
79 76 69 60 76 78 74 69 61 63 60 59 65 80 73 71 86 88 100 92 74 61 59 59 51 44 37 30 28 31 28 28 28 32 38 47 56 67 76 82 83 98 101
70 71 58 55 71 75 70 68 62 60 60 62 71 82 75 99 95 106 101 78 67 60 62 56 46 38 32 29 28 27 29 28 30 34 40 49 58 73 77 82 90 98 100
59 57 50 59 62 64 59 56 54 55 62 70 75 76 82 99 97 97 88 76 65 60 54 46 38 31 29 27 25 27 29 29 29 35 41 50 60 73 79 83 95 102 104
32 36 53 56 52 47 45 46 54 63 71 78 87 86 90 99 99 90 72 64 65 59 49 41 32 28 27 26 26 27 27 28 30 35 42 51 62 73 78 84 96 105 103
17 20 29 33 34 37 44 53 64 76 80 81 83 82 91 97 85 71 63 62 56 48 41 33 28 26 25 24 25 27 28 29 30 32 39 50 63 73 77 83 96 103 105
1 11 20 28 37 45 51 59 66 68 76 86 89 87 78 72 70 60 58 52 45 39 32 28 25 23 21 22 25 26 27 27 28 32 40 46 61 71 75 79 93 103 107
7 11 18 28 36 41 45 53 59 66 72 77 76 73 67 71 61 56 50 44 37 31 27 23 21 21 22 23 25 25 25 25 26 30 37 45 63 71 74 77 91 99 105
Wind_Direction_850mb
262 258 252 247 241 239 239 240 240 241 242 240 236 233 233 232 230 229 228 229 231 237 245 252 256 259 262 264 271 280 292 298 301 307 310 313 315 318 322 324 324 321 319
269 263 261 250 245 242 241 241 241 242 243 242 238 233 231 231 231 229 228 229 231 235 241 247 253 256 258 258 262 274 288 296 302 307 307 312 315 319 323 323 321 319 322
283 268 261 255 251 249 245 244 244 243 243 242 237 233 231 230 229 227 229 231 233 234 238 245 251 255 256 256 262 274 288 295 299 302 305 310 313 318 320 321 322 324 323
289 270 266 261 260 258 251 248 247 246 245 242 239 235 232 231 228 227 227 228 231 233 236 241 245 250 253 254 264 276 285 292 296 298 301 307 313 321 325 325 321 321 321
303 284 265 257 260 259 254 253 251 249 248 244 239 234 231 228 226 226 227 228 229 231 235 239 244 247 249 253 264 274 279 288 294 296 303 308 315 322 323 322 319 319 320
298 290 290 271 261 261 256 252 251 249 244 241 237 234 232 227 224 225 228 228 228 231 235 238 240 244 245 252 263 273 286 294 296 300 306 307 312 314 317 316 317 319 317
298 288 291 285 272 263 256 254 249 246 244 239 235 231 229 227 226 225 227 225 226 230 234 234 238 241 246 253 260 274 282 288 289 293 294 301 306 312 315 317 314 308 303
344 313 302 290 282 268 261 253 247 244 244 241 234 232 230 229 226 224 226 225 224 226 229 233 237 240 245 251 262 270 275 281 283 287 292 302 309 312 309 301 295 300 302
342 348 331 312 292 274 261 253 248 243 239 234 230 229 230 228 224 224 226 223 222 223 225 227 232 239 247 259 265 268 274 283 296 299 298 294 298 300 300 302 304 306 305
335 330 337 333 316 290 271 259 250 243 237 232 231 228 227 227 223 223 225 222 221 219 222 224 230 237 246 254 258 266 277 287 294 297 299 300 302 304 305 302 302 301 305
315 318 321 325 326 307 288 266 252 243 238 232 230 230 229 225 221 226 228 221 221 219 222 225 228 236 240 244 253 263 272 282 285 294 297 302 304 307 308 308 309 309 305
313 307 302 308 314 316 294 273 258 245 237 233 230 227 227 222 217 221 223 225 220 221 220 223 224 228 237 244 247 252 259 269 286 292 296 303 307 313 316 315 314 310 307
307 306 297 285 287 296 295 285 265 248 240 234 231 229 227 219 216 218 219 224 219 216 216 217 218 225 234 233 235 242 259 272 282 288 294 305 312 318 320 320 316 315 314
297 292 294 290 279 271 273 271 263 255 250 243 233 229 227 221 214 210 205 203 214 209 208 209 214 228 223 222 229 239 256 270 280 288 300 310 318 322 322 326 322 322 316
299 293 289 283 282 276 266 257 257 256 252 247 246 238 231 226 220 217 216 208 215 218 211 209 220 218 216 219 226 236 249 265 275 288 305 316 323 323 325 328 325 324 314
295 289 281 283 276 274 268 262 258 254 251 245 241 244 244 241 232 219 215 215 216 219 206 214 217 213 215 219 227 240 256 267 277 296 309 320 324 326 326 327 329 324 316
292 288 282 277 275 271 268 259 257 252 253 251 241 242 240 238 228 216 205 194 209 208 208 213 212 209 213 218 228 241 253 265 282 299 310 319 327 327 327 329 333 329 318
286 283 280 266 270 270 265 262 257 251 244 241 233 222 220 227 216 194 186 183 183 204 211 208 204 207 210 221 234 248 258 267 285 300 311 323 329 329 330 332 333 328 315
287 281 273 271 268 269 268 259 253 247 244 240 230 210 211 193 190 186 181 186 195 211 204 202 205 206 212 221 238 253 260 274 292 304 315 325 329 331 332 335 333 322 316
284 279 275 260 260 261 260 255 245 241 236 229 211 201 198 178 182 181 188 193 201 202 200 202 203 210 220 228 240 254 267 279 294 305 322 326 330 332 333 335 331 319 318
286 282 270 259 256 258 256 249 241 233 227 212 201 196 194 180 184 189 184 196 198 194 195 199 204 211 222 233 244 260 271 283 298 316 322 325 329 333 335 338 326 324 321
286 274 257 252 255 249 245 239 229 217 201 192 185 181 179 186 188 185 195 199 193 190 195 200 205 213 225 239 252 264 276 289 304 319 323 326 330 334 338 336 330 331 327
289 263 250 248 243 239 227 217 203 193 185 182 183 174 186 188 190 194 190 185 184 188 192 199 203 217 232 244 257 269 283 300 309 321 323 325 330 337 338 333 335 335 329
283 247 232 225 220 212 204 196 188 186 185 182 174 184 188 195 190 190 184 180 183 186 193 199 207 222 238 253 265 277 289 301 308 320 319 321 332 336 330 332 337 336 334
213 184 186 187 185 186 185 185 183 184 178 176 182 189 191 187 185 180 180 181 184 191 197 207 220 232 247 261 268 275 284 297 308 316 312 325 334 326 328 331 335 337 338
87 138 156 166 172 176 178 179 182 185 187 188 189 189 187 182 181 181 181 185 189 197 208 222 239 255 268 275 278 280 289 300 304 314 321 320 328 326 328 330 333 337 339